DW6206 Weather Reports


Display with metric or nautical units.
time (UTC)temp
F
wind
direction
speed
MPH
gust
MPH
rain 1hr
in
rain 24hr
in
rain mn
in
humidity
%
barometer
mb
20190920183058 62 67 0.0 0.0 0.00 0.00 0.00 43 1022.4
20190920182043 62 67 0.0 0.0 0.00 0.00 0.00 42 1022.2
20190920181017 63 67 0.0 0.0 0.00 0.00 0.00 41 1022.5
20190920180034 63 67 0.0 0.0 0.00 0.00 0.00 41 1022.4
20190920175029 64 67 0.0 0.0 0.00 0.00 0.00 41 1022.4
20190920174020 64 112 0.0 0.0 0.00 0.00 0.00 40 1022.5
20190920173033 64 22 0.0 0.0 0.00 0.00 0.00 39 1022.4
20190920172012 65 67 0.0 0.0 0.00 0.00 0.00 39 1022.5
20190920171019 65 22 1.0 1.0 0.00 0.00 0.00 39 1022.4
20190920170030 66 67 0.0 0.0 0.00 0.00 0.00 39 1022.4
20190920165024 66 45 0.0 0.0 0.00 0.00 0.00 38 1022.5
20190920164000 67 67 2.0 2.0 0.00 0.00 0.00 38 1022.4
20190920162934 67 67 0.0 3.0 0.00 0.00 0.00 38 1022.6
20190920161914 67 67 1.0 4.0 0.00 0.00 0.00 38 1022.6
20190920160915 68 67 1.0 1.0 0.00 0.00 0.00 37 1022.6
20190920155928 68 67 2.0 2.0 0.00 0.00 0.00 38 1022.7
20190920154909 68 45 1.0 1.0 0.00 0.00 0.00 38 1022.7
20190920153907 68 90 1.0 2.0 0.00 0.00 0.00 37 1022.8
20190920152912 69 67 3.0 6.0 0.00 0.00 0.00 38 1022.8
20190920151836 69 45 0.0 0.0 0.00 0.00 0.00 37 1023.1
20190920150831 69 45 0.0 1.0 0.00 0.00 0.00 37 1023.1
20190920145830 69 67 0.0 4.0 0.00 0.00 0.00 36 1023.3
20190920144839 69 0 0.0 0.0 0.00 0.00 0.00 36 1023.2
20190920143900 70 67 0.0 4.0 0.00 0.00 0.00 36 1023.3
20190920142827 70 67 1.0 1.0 0.00 0.00 0.00 35 1023.4
20190920141801 71 45 0.0 0.0 0.00 0.00 0.00 35 1023.6
20190920140748 70 45 0.0 0.0 0.00 0.00 0.00 34 1023.6
20190920135800 71 67 3.0 3.0 0.00 0.00 0.00 34 1023.7
20190920134728 71 22 0.0 0.0 0.00 0.00 0.00 34 1024.0
20190920133743 72 67 0.0 0.0 0.00 0.00 0.00 34 1024.1
20190920132730 71 315 0.0 0.0 0.00 0.00 0.00 35 1024.2
20190920131702 71 112 0.0 0.0 0.00 0.00 0.00 34 1024.2
20190920130632 71 67 0.0 0.0 0.00 0.00 0.00 35 1024.5
20190920125647 70 45 1.0 1.0 0.00 0.00 0.00 36 1024.6
20190920124636 70 67 0.0 0.0 0.00 0.00 0.00 36 1024.6
20190920123606 72 67 0.0 0.0 0.00 0.00 0.00 36 1024.8
20190920122609 71 67 0.0 0.0 0.00 0.00 0.00 36 1024.9
20190920121610 70 67 7.0 7.0 0.00 0.00 0.00 37 1025.0
20190920120607 71 67 3.0 3.0 0.00 0.00 0.00 36 1024.9
20190920115610 71 270 0.0 0.0 0.00 0.00 0.00 38 1025.0
20190920114605 70 67 0.0 0.0 0.00 0.00 0.00 39 1025.1
20190920113534 68 292 0.0 2.0 0.00 0.00 0.00 41 1025.2
20190920112552 69 67 1.0 1.0 0.00 0.00 0.00 40 1025.3
20190920111541 69 67 1.0 1.0 0.00 0.00 0.00 40 1025.4
20190920110603 68 315 0.0 0.0 0.00 0.00 0.00 42 1025.4
20190920105554 67 45 3.0 6.0 0.00 0.00 0.00 42 1025.6
20190920104526 67 90 0.0 0.0 0.00 0.00 0.00 43 1025.8
20190920103514 67 67 1.0 4.0 0.00 0.00 0.00 43 1026.0
20190920102511 66 45 1.0 1.0 0.00 0.00 0.00 45 1026.0
20190920101439 65 67 0.0 0.0 0.00 0.00 0.00 45 1026.0
20190920100409 65 90 0.0 0.0 0.00 0.00 0.00 47 1026.0
20190920095352 65 67 1.0 1.0 0.00 0.00 0.00 47 1026.1
20190920094317 65 45 0.0 1.0 0.00 0.00 0.00 47 1026.4
20190920093317 65 67 0.0 0.0 0.00 0.00 0.00 50 1026.4
20190920092327 64 0 0.0 0.0 0.00 0.00 0.00 51 1026.6
20190920091322 64 67 0.0 0.0 0.00 0.00 0.00 54 1026.6
20190920090245 63 337 0.0 0.0 0.00 0.00 0.00 55 1027.0
20190920085236 62 67 0.0 0.0 0.00 0.00 0.00 57 1027.2
20190920084249 61 292 0.0 0.0 0.00 0.00 0.00 59 1027.4
20190920083216 60 67 0.0 0.0 0.00 0.00 0.00 60 1027.1
20190920082231 59 67 0.0 0.0 0.00 0.00 0.00 62 1027.4
20190920081250 57 90 0.0 0.0 0.00 0.00 0.00 65 1027.2
20190920080257 56 90 0.0 0.0 0.00 0.00 0.00 66 1026.8
20190920075250 55 67 0.0 0.0 0.00 0.00 0.00 67 1026.5
20190920074219 54 67 0.0 0.0 0.00 0.00 0.00 68 1026.6
20190920073156 53 67 0.0 0.0 0.00 0.00 0.00 68 1026.7
20190920072159 53 67 0.0 0.0 0.00 0.00 0.00 68 1026.7
20190920071159 53 67 0.0 0.0 0.00 0.00 0.00 69 1026.7
20190920070203 52 90 0.0 0.0 0.00 0.00 0.00 70 1026.6
20190920065159 51 225 0.0 0.0 0.00 0.00 0.00 72 1026.7
20190920064216 50 112 0.0 0.0 0.00 0.00 0.00 74 1026.6
20190920063208 48 112 0.0 0.0 0.00 0.00 0.00 76 1026.5
20190920062220 47 90 0.0 0.0 0.00 0.00 0.00 77 1026.5
20190920061223 47 225 0.0 0.0 0.00 0.00 0.00 77 1026.5
20190920060148 46 180 0.0 0.0 0.00 0.00 0.00 78 1026.2
20190920055129 45 202 0.0 0.0 0.00 0.00 0.00 78 1026.2
20190920054135 45 90 0.0 0.0 0.00 0.00 0.00 77 1026.1
20190920053111 44 67 0.0 0.0 0.00 0.00 0.00 77 1026.3
20190920052038 44 67 0.0 0.0 0.00 0.00 0.00 77 1026.1
20190920051050 44 90 0.0 0.0 0.00 0.00 0.00 77 1026.2
20190920050034 45 112 0.0 0.0 0.00 0.00 0.00 77 1026.0
20190920045004 45 112 0.0 0.0 0.00 0.00 0.00 77 1026.0
20190920043928 45 90 0.0 0.0 0.00 0.00 0.00 77 1026.0
20190920042855 45 90 0.0 0.0 0.00 0.00 0.00 77 1025.9
20190920041910 45 67 0.0 0.0 0.00 0.00 0.00 77 1026.1
20190920040856 45 67 0.0 0.0 0.00 0.00 0.00 77 1026.2
20190920035841 45 67 0.0 0.0 0.00 0.00 0.00 76 1026.2
20190920034858 45 67 0.0 0.0 0.00 0.00 0.00 76 1026.3
20190920033837 45 90 0.0 0.0 0.00 0.00 0.00 76 1026.3
20190920032847 45 135 0.0 0.0 0.00 0.00 0.00 76 1026.2
20190920031846 45 90 0.0 0.0 0.00 0.00 0.00 76 1026.3
20190920030907 45 112 0.0 0.0 0.00 0.00 0.00 75 1026.5
20190920025918 46 90 0.0 0.0 0.00 0.00 0.00 75 1026.6
20190920024846 46 112 0.0 0.0 0.00 0.00 0.00 76 1026.6
20190920023843 46 202 0.0 0.0 0.00 0.00 0.00 75 1026.5
20190920022845 46 180 0.0 0.0 0.00 0.00 0.00 75 1026.6
20190920021848 46 135 0.0 0.0 0.00 0.00 0.00 75 1026.7
20190920020907 46 135 0.0 0.0 0.00 0.00 0.00 75 1026.6
20190920015842 46 202 0.0 0.0 0.00 0.00 0.00 74 1026.5
20190920014817 47 180 0.0 0.0 0.00 0.00 0.00 74 1026.6
20190920013816 47 135 0.0 0.0 0.00 0.00 0.00 74 1026.7
20190920012742 47 225 0.0 0.0 0.00 0.00 0.00 74 1026.7
20190920011705 47 225 0.0 0.0 0.00 0.00 0.00 73 1026.6
20190920010718 47 225 0.0 0.0 0.00 0.00 0.00 73 1026.8
20190920005653 47 112 0.0 0.0 0.00 0.00 0.00 72 1027.0
20190920004701 48 112 0.0 0.0 0.00 0.00 0.00 72 1026.9
20190920003647 48 112 0.0 0.0 0.00 0.00 0.00 72 1026.8
20190920002640 48 112 0.0 0.0 0.00 0.00 0.00 71 1026.9
20190920001644 48 90 0.0 0.0 0.00 0.00 0.00 71 1027.0
20190920000620 48 67 0.0 0.0 0.00 0.00 0.00 71 1027.1
20190919235635 48 90 0.0 0.0 0.00 0.00 0.00 71 1027.2
20190919234654 48 90 0.0 0.0 0.00 0.00 0.00 71 1027.4
20190919233659 49 112 0.0 0.0 0.00 0.00 0.00 71 1027.1
20190919232712 49 90 0.0 0.0 0.00 0.00 0.00 70 1027.2
20190919231658 49 247 0.0 0.0 0.00 0.00 0.00 70 1027.2
20190919230624 50 157 0.0 0.0 0.00 0.00 0.00 69 1027.1
20190919225639 50 180 0.0 0.0 0.00 0.00 0.00 68 1027.1
20190919224633 50 112 0.0 0.0 0.00 0.00 0.00 67 1027.3
20190919223641 51 112 0.0 0.0 0.00 0.00 0.00 66 1027.1
20190919222653 51 90 0.0 0.0 0.00 0.00 0.00 66 1027.1
20190919221626 51 22 0.0 0.0 0.00 0.00 0.00 65 1027.2
20190919220638 52 22 0.0 0.0 0.00 0.00 0.00 65 1027.2
20190919215617 52 22 0.0 0.0 0.00 0.00 0.00 65 1027.3
20190919214615 52 22 0.0 0.0 0.00 0.00 0.00 63 1027.5
20190919213631 53 22 0.0 0.0 0.00 0.00 0.00 63 1027.5
20190919212556 53 22 0.0 0.0 0.00 0.00 0.00 63 1027.5
20190919211521 53 22 0.0 0.0 0.00 0.00 0.00 62 1027.4
20190919210516 54 22 0.0 0.0 0.00 0.00 0.00 61 1027.5
20190919205521 54 22 0.0 0.0 0.00 0.00 0.00 60 1027.4
20190919204444 54 22 0.0 0.0 0.00 0.00 0.00 59 1027.6
20190919203410 55 45 0.0 0.0 0.00 0.00 0.00 58 1027.3
20190919202342 56 67 0.0 0.0 0.00 0.00 0.00 57 1027.2
20190919201343 56 67 0.0 0.0 0.00 0.00 0.00 56 1027.2
20190919200345 56 45 0.0 0.0 0.00 0.00 0.00 55 1027.2
20190919195347 57 45 0.0 0.0 0.00 0.00 0.00 54 1027.3
20190919194347 57 45 0.0 0.0 0.00 0.00 0.00 54 1027.1
20190919193405 58 45 0.0 0.0 0.00 0.00 0.00 53 1027.1
20190919192407 58 45 0.0 0.0 0.00 0.00 0.00 52 1027.1
20190919191341 58 45 0.0 0.0 0.00 0.00 0.00 51 1027.1
20190919190306 59 45 0.0 0.0 0.00 0.00 0.00 50 1026.9
20190919185303 59 45 0.0 0.0 0.00 0.00 0.00 49 1026.7
20190919184326 59 67 0.0 0.0 0.00 0.00 0.00 49 1026.7